Preview of NWS' New Version of Forecast
This preview is not operational and should not be used for support decisions.

Regional Weather Roundup (RWR)

Issued by National Weather Service (NWS)

                            
000
ASUS45 KBOU 191310
RWRCO 

WEATHER ROUNDUP FOR COLORADO
NATIONAL WEATHER SERVICE DENVER/BOULDER CO
700 AM MDT WED JUN 19 2019

NOTE: "FAIR" INDICATES FEW OR NO CLOUDS BELOW 12000 FEET WITH NO
SIGNIFICANT WEATHER AND/OR OBSTRUCTIONS TO VISIBILITY.

COZ001>005-013-030-031-191400-
...NORTHWEST COLORADO...
  
CITY           SKY/WX    TMP DP  RH WIND       PRES   REMARKS
CRAIG          FAIR      49  45  86 E5        30.13S                  
HAYDEN         PTSUNNY   48  44  86 E7        30.16S                  
MEEKER         FAIR      46  43  89 NE3       30.15S                  
RANGELY        FAIR      52  49  92 E3        30.09S                  
RABBIT EARS PA NOT AVBL                                               
STEAMBOAT SPGS CLOUDY    42  42 100 CALM      30.16F VSB<1/4          
WALDEN         FAIR      45  39  81 S6        30.20S                  
$$

COZ006>008-011-191400-
...WEST CENTRAL VALLEYS...
  
CITY           SKY/WX    TMP DP  RH WIND       PRES   REMARKS
GRAND JUNCTION FAIR      58  48  69 SE7       30.09R                  
MONTROSE       FAIR      50  44  80 SE6       30.17R                  
EAGLE          CLOUDY    50  47  89 NW5       30.21S                  
RIFLE          FAIR      51  47  86 E3        30.16R                  
DELTA          FAIR      55  44  67 NE5       30.15R                  
NUCLA          FAIR      50  45  81 SE6       30.19R                  
$$

COZ017>023-064>068-191400-
...SOUTHWEST COLORADO...
  
CITY           SKY/WX    TMP DP  RH WIND       PRES   REMARKS
DURANGO        FAIR      46  40  79 CALM      30.19R                  
CORTEZ         FAIR      49  42  77 E5        30.15R                  
PAGOSA SPRINGS FAIR      42  42  98 W3        30.24S                  
TELLURIDE      FAIR      43  41  93 SE5       30.33S                  
WOLF CREEK PAS NOT AVBL                                               
$$

COZ009-010-012-014-032>034-037-058>063-191400-
...CENTRAL COLORADO...
  
CITY           SKY/WX    TMP DP  RH WIND       PRES   REMARKS
ASPEN          FAIR      43  40  89 CALM      30.23S                  
BUENA VISTA    CLOUDY    50  37  61 N16       30.22R                  
COPPER MTN     SNOW      37  34  87 MISG      30.38F VSB<1/4          
BERTHOUD PASS  CLOUDY    30  21  69 NW29G41   30.34S WCI  15          
COTTONWOOD PAS NOT AVBL                                               
GUNNISON       FAIR      44  41  89 N6        30.26R                  
GRANBY         FAIR      42  41  95 E5        30.22F                  
KREMMLING      NOT AVBL                                               
LEADVILLE      CLOUDY    38  37  97 CALM      30.30F                  
MONARCH PASS   FOG       32  32 100 MISG      30.50R VSB<1/4          
SALIDA         FAIR      50  39  67 NW5       30.28R                  
SUNLIGHT       FAIR      36  34  93 W7        30.40R                  
WILKERSON PASS CLOUDY    37  30  75 NW8G23    30.38R                  
$$

COZ069>075-191400-
...SAN LUIS VALLEY/SANGRE DE CRISTO MOUNTAINS...
  
CITY           SKY/WX    TMP DP  RH WIND       PRES   REMARKS
ALAMOSA        PTSUNNY   43  39  86 CALM      30.22S                  
DEL NORTE      FAIR      47  36  66 W10       30.24S                  
LA VETA PASS   NOT AVBL                                               
SAGUACHE       FAIR      43  41  93 CALM      30.24R                  
$$

COZ035-036-038>040-191400-
...NORTHERN COLORADO FRONT RANGE...
  
CITY           SKY/WX    TMP DP  RH WIND       PRES   REMARKS
DENVER INTL AP LGT RAIN  54  50  86 E5        30.03S                  
AURORA         NOT AVBL                                               
FRONT RANGE AP CLOUDY    56  50  80 CALM      30.06R                  
ERIE MUNI ARPT PTSUNNY   54  51  90 CALM      30.07F                  
BOULDER MUN AP FAIR      55  50  82 CALM      30.01F                  
CENTENNIAL     CLOUDY    55  45  68 CALM      30.08R                  
BROOMFIELD     PTSUNNY   55  48  76 VRB3      30.05F                  
FORT COLLINS   NOT AVBL                                               
LONGMONT       FAIR      58  52  80 CALM      30.02F                  
$$

COZ041-046-047-076>085-087-088-191400-
...PIKES PEAK/PALMER DIVIDE AND SOUTHERN FOOTHILLS...
  
CITY           SKY/WX    TMP DP  RH WIND       PRES   REMARKS
COLO. SPRINGS  PTSUNNY   55  43  63 N8        30.08R                  
A. F. ACADEMY  FAIR      51  44  77 N3        30.08R                  
SCHRIEVER AFB  NOT AVBL                                               
CHEYENNE MTN   NOT AVBL                                               
ELLICOTT         N/A    N/A N/A N/A N5        30.05R                  
FALCON         FAIR      58  40  49 N10G20    30.12R                  
FORT CARSON    FAIR      51  44  77 NW6       30.04R                  
LIMON          PTSUNNY   56  49  77 NW13      30.04R                  
MONUMENT HILL  FAIR      50  41  71 N5        30.14R                  
CANON CITY     FAIR      61  43  51 W15G26    30.05R                  
WALSENBURG     NOT AVBL                                               
TRINIDAD       FAIR      51  45  79 W7        30.05S                  
$$

COZ042>045-048>051-090-091-191400-
...NORTHEAST COLORADO...
  
CITY           SKY/WX    TMP DP  RH WIND       PRES   REMARKS
GREELEY ARPT   FAIR      57  51  80 SW3       30.00R                  
AKRON          FAIR      53  51  93 NW14      29.97R                  
BURLINGTON     FAIR      59  56  89 W7        29.94S                  
WRAY           FAIR      57  54  88 W6        29.90F                  
YUMA           FAIR      54  45  71 W14       29.93S                  
STERLING       CLOUDY    55  54  94 N3        29.93S                  
HOLYOKE        FAIR      59  55  88 CALM      29.90F                  
FORT MORGAN    FAIR      54  52  92 NW9       29.98F                  
$$

COZ086-089-092>099-191400-
...SOUTHEAST COLORADO...
  
CITY           SKY/WX    TMP DP  RH WIND       PRES   REMARKS
PUEBLO         FAIR      54  52  93 CALM      30.00R                  
LA JUNTA       FAIR      57  52  83 W6        29.97R                  
LAMAR          FAIR      62  58  86 W5        29.92S                  
SPRINGFIELD      N/A     57  54  89 W8        29.96S                  
$$